Location: Bittkow
(50.3000°N, 19.0000°E)
Time: 13:05:19
(UTC+00:00)

CZ-4B R/B - Pass Details

Date: 19 September 2020
Orbit: 703 x 802 km, 98.9° (Epoch: 21 October)

Event Time Altitude Azimuth Distance (km) Brightness Sun altitude
Rises 01:33:35 0° 12° (NNE) 3,208 7.5 -26.2°
Reaches altitude 10° 01:35:52 10° 10° (N) 2,295 6.6 -25.9°
Enters shadow 01:40:47 64° 295° (WNW) 857 3.5 -25.3°
